CW8812 Weather Reports


time (UTC)temp
F
wind
direction
speed
knots
gust
knots
rain 1hr
in
rain 24hr
in
rain mn
in
humidity
%
barometer
mb
20260504175516 68 225 0.9 5.2 0.00 0.00 0.00 54 1008.8
20260504174516 67 225 0.9 5.2 0.00 0.00 0.00 57 1008.8
20260504173516 68 225 0.9 4.3 0.00 0.00 0.00 53 1009.0
20260504172517 68 225 1.7 5.2 0.00 0.00 0.00 54 1009.1
20260504171516 67 203 1.7 5.2 0.00 0.00 0.00 54 1009.1
20260504170517 68 225 0.9 4.3 0.00 0.00 0.00 54 1009.4
20260504150516 66 203 2.6 6.1 0.00 0.00 0.00 45 1010.4
20260504140516 65 270 3.5 9.6 0.00 0.00 0.00 40 1010.6
20260504130515 62 225 1.7 5.2 0.00 0.00 0.00 52 1011.1
20260504110537 50 0.0 0.0 0.00 0.00 0.00 74 1011.9
20260504100537 46 0.0 0.0 0.00 0.00 0.00 74 1012.1
20260504081517 49 0.0 0.0 0.00 0.00 0.00 70 1011.7
20260504080518 49 0.0 0.0 0.00 0.00 0.00 71 1011.7
20260504050518 50 0.0 0.0 0.00 0.00 0.00 67 1011.2
20260504045517 50 0.0 0.0 0.00 0.00 0.00 66 1011.1
20260504044518 51 0.0 0.0 0.00 0.00 0.00 65 1011.1
20260504043516 51 0.0 0.0 0.00 0.00 0.00 64 1011.0
20260504042517 51 0.0 0.0 0.00 0.00 0.00 63 1011.0
20260504041538 50 0.0 0.0 0.00 0.00 0.00 64 1011.0
20260504040516 50 0.0 0.0 0.00 0.00 0.00 64 1010.8
20260504035517 50 0.0 0.0 0.00 0.00 0.00 66 1010.7
20260504034515 50 0.0 0.0 0.00 0.00 0.00 65 1010.7
20260504033515 49 0.0 0.0 0.00 0.00 0.00 63 1010.7
20260504032516 49 0.0 0.0 0.00 0.00 0.00 61 1010.6
20260504031515 50 0.0 0.0 0.00 0.00 0.00 60 1010.6
20260504030519 50 0.0 0.0 0.00 0.00 0.00 58 1010.6
20260504025515 50 0.0 0.0 0.00 0.00 0.00 56 1010.6
20260504024518 51 0.0 0.0 0.00 0.00 0.00 54 1010.6
20260504023518 51 0.0 0.0 0.00 0.00 0.00 52 1010.6
20260504022517 51 0.0 0.0 0.00 0.00 0.00 50 1010.5
20260504021538 51 0.0 0.0 0.00 0.00 0.00 48 1010.5
20260504020517 51 0.0 0.0 0.00 0.00 0.00 49 1010.5
20260504015517 51 0.0 0.0 0.00 0.00 0.00 48 1010.5
20260504014538 51 0.0 0.0 0.00 0.00 0.00 48 1010.5
20260504013517 51 0.0 0.0 0.00 0.00 0.00 48 1010.3
20260504012517 52 0.0 0.0 0.00 0.00 0.00 48 1010.2
20260504011517 52 0.0 0.0 0.00 0.00 0.00 47 1010.2
20260504010517 53 0.0 0.0 0.00 0.00 0.00 44 1010.1
20260504005539 53 0.0 0.0 0.00 0.00 0.00 43 1009.6
20260504004537 54 0.0 0.0 0.00 0.00 0.00 41 1009.6
20260504003517 54 0.0 0.0 0.00 0.00 0.00 40 1009.5
20260504002557 55 0.0 0.0 0.00 0.00 0.00 38 1009.5
20260504001517 56 0.0 0.0 0.00 0.00 0.00 37 1009.5
20260504000517 56 0.0 0.0 0.00 0.00 0.00 34 1009.3
20260503235517 57 0.0 0.0 0.00 0.00 0.00 32 1009.2
20260503234517 58 0.0 2.6 0.00 0.00 0.00 29 1009.2
20260503233517 58 0.0 0.9 0.00 0.00 0.00 29 1009.0
20260503232517 59 270 0.9 4.3 0.00 0.00 0.00 28 1009.0
20260503231517 59 270 1.7 5.2 0.00 0.00 0.00 28 1009.0
20260503230517 59 270 1.7 7.0 0.00 0.00 0.00 27 1008.9
20260503225518 60 293 3.5 9.6 0.00 0.00 0.00 27 1008.9
20260503224517 60 315 2.6 7.0 0.00 0.00 0.00 27 1008.9
20260503223517 60 315 2.6 9.6 0.00 0.00 0.00 27 1008.8
20260503222517 60 315 3.5 9.6 0.00 0.00 0.00 27 1008.8
20260503221517 60 315 5.2 16.5 0.00 0.00 0.00 26 1008.8
20260503220517 60 0 3.5 8.7 0.00 0.00 0.00 26 1008.7
20260503215517 60 315 2.6 10.4 0.00 0.00 0.00 26 1008.6
20260503214537 60 338 4.3 11.3 0.00 0.00 0.00 27 1008.6
20260503213516 60 293 5.2 12.2 0.00 0.00 0.00 26 1008.4
20260503212537 60 315 4.3 10.4 0.00 0.00 0.00 27 1008.2
20260503211537 60 338 5.2 16.5 0.00 0.00 0.00 26 1008.2
20260503210517 61 315 3.5 9.6 0.00 0.00 0.00 27 1008.4
20260503205517 61 338 4.3 12.2 0.00 0.00 0.00 26 1008.5
20260503204517 60 338 4.3 9.6 0.00 0.00 0.00 25 1008.5
20260503203518 60 338 3.5 11.3 0.00 0.00 0.00 26 1008.4
20260503202516 60 315 6.1 13.9 0.00 0.00 0.00 27 1008.5
20260503201518 60 315 5.2 17.4 0.00 0.00 0.00 26 1008.5
20260503200516 60 315 5.2 12.2 0.00 0.00 0.00 27 1008.5
20260503195518 60 338 4.3 12.2 0.00 0.00 0.00 26 1008.5
20260503194516 60 338 7.0 15.6 0.00 0.00 0.00 27 1008.5
20260503193516 59 338 3.5 11.3 0.00 0.00 0.00 28 1008.5
20260503192516 59 0 5.2 15.6 0.00 0.00 0.00 28 1008.5
20260503191516 60 0 2.6 9.6 0.00 0.00 0.00 27 1008.5
20260503190516 59 338 3.5 8.7 0.00 0.00 0.00 28 1009.0
20260503185516 60 293 5.2 11.3 0.00 0.00 0.00 27 1009.0
20260503184516 59 270 4.3 12.2 0.00 0.00 0.00 28 1009.0
20260503183517 58 315 6.1 11.3 0.00 0.00 0.00 29 1009.1
20260503182517 59 338 5.2 11.3 0.00 0.00 0.00 29 1009.0
20260503181516 58 0 3.5 7.0 0.00 0.00 0.00 31 1009.0
20260503180517 57 315 6.1 15.6 0.00 0.00 0.00 30 1009.0